Date String (YYYY-MM-DD hh:mm:ss) UTC,Instrument flags,Ambient pressure (hPa),Sample flow (lpm),Bypass flow (lpm),Sample temperature (°C),Ambient temperature (°C),ASC tube jacket temperature (°C),LED temperature (°C),Box temperature (°C),Sample RH (%),Span deviation,Mass concentration (μg/m³),Mass concentration (μg/m³),Mass concentration (μg/m³)
DateTimeUTC,F1_M11,P_M11,Q1_M11,Q2_M11,T1_M11,T2_M11,T3_M11,T4_M11,T5_M11,U1_M11,ZSPAN_M11,X0_M11,X2_M11,X1_M11
2023-02-24 19:00:00,,0824.5,4.94,0.00,22.4,21.7,00.0,31.2,24.2,09.7,0000.0,0014.00,0005.83,0005.30
2023-02-24 19:01:00,,0824.4,5.03,0.00,22.5,23.0,00.0,31.2,24.5,10.0,0000.0,0012.26,0005.07,0004.58
2023-02-24 19:02:00,,0824.3,5.00,0.00,22.7,23.0,00.0,31.3,24.6,09.4,0000.0,0010.61,0004.39,0003.91
2023-02-24 19:03:00,,0824.4,5.00,0.00,22.7,22.4,00.0,31.3,24.5,09.3,0000.0,0009.61,0003.81,0003.34
2023-02-24 19:04:00,,0824.7,4.99,0.00,22.6,21.9,00.0,31.3,24.4,09.5,0000.0,0009.27,0003.61,0003.20
2023-02-24 19:05:00,,0824.4,4.99,0.00,22.6,21.5,00.0,31.3,24.3,09.3,0000.0,0009.67,0003.53,0003.16
2023-02-24 19:06:00,,0824.4,5.01,0.00,22.6,21.2,00.0,31.3,24.2,09.0,0000.0,0008.84,0003.35,0002.91
2023-02-24 19:07:00,,0824.4,5.01,0.00,22.5,21.0,00.0,31.3,24.2,09.9,0000.0,0007.52,0002.94,0002.43
2023-02-24 19:08:00,,0824.5,5.00,0.00,22.5,20.8,00.0,31.3,24.1,09.6,0000.0,0005.60,0002.04,0001.61
2023-02-24 19:09:00,,0824.6,5.00,0.00,22.5,20.7,00.0,31.3,24.0,09.6,0000.0,0004.40,0001.34,0000.91
2023-02-24 19:10:00,,0824.6,5.00,0.00,22.4,20.5,00.0,31.3,24.0,09.0,0000.0,0004.40,0001.40,0000.96
2023-02-24 19:11:00,,0824.3,5.00,0.00,22.4,20.4,00.0,31.2,23.9,09.2,0000.0,0005.21,0001.88,0001.45
2023-02-24 19:12:00,,0824.4,5.01,0.00,22.3,20.3,00.0,31.2,23.9,09.5,0000.0,0005.64,0001.84,0001.45
2023-02-24 19:13:00,,0824.5,5.00,0.00,22.3,20.2,00.0,31.2,23.8,09.3,0000.0,0005.66,0001.86,0001.44
2023-02-24 19:14:00,,0824.4,5.00,0.00,22.3,20.9,00.0,31.2,24.0,10.0,0000.0,0007.05,0001.86,0001.45
2023-02-24 19:15:00,,0824.4,5.00,0.00,22.4,22.4,00.0,31.1,24.3,09.8,0000.0,0007.16,0001.88,0001.46
2023-02-24 19:16:00,,0824.4,5.01,0.00,22.6,23.5,00.0,31.2,24.7,09.6,0000.0,0005.72,0001.83,0001.40
2023-02-24 19:17:00,,0824.4,5.02,0.00,22.7,23.2,00.0,31.2,24.7,09.5,0000.0,0005.49,0001.82,0001.40
2023-02-24 19:18:00,,0824.3,4.99,0.00,22.7,22.6,00.0,31.3,24.6,09.8,0000.0,0005.63,0001.82,0001.40
2023-02-24 19:19:00,,0824.3,5.00,0.00,22.7,22.1,00.0,31.3,24.4,09.6,0000.0,0005.53,0001.82,0001.40
2023-02-24 19:20:00,,0824.3,5.01,0.00,22.7,21.7,00.0,31.3,24.3,09.6,0000.0,0005.54,0001.83,0001.40
2023-02-24 19:21:00,,0824.3,5.01,0.00,22.6,21.4,00.0,31.3,24.2,09.5,0000.0,0005.42,0001.53,0001.15
2023-02-24 19:22:00,,0824.3,5.00,0.00,22.6,21.2,00.0,31.3,24.2,09.8,0000.0,0004.76,0000.90,0000.52
2023-02-24 19:23:00,,0824.2,5.00,0.00,22.6,21.1,00.0,31.3,24.1,09.8,0000.0,0004.17,0000.91,0000.49
2023-02-24 19:24:00,,0824.5,4.99,0.00,22.5,21.0,00.0,31.3,24.0,09.5,0000.0,0005.41,0000.91,0000.50
2023-02-24 19:25:00,,0824.5,5.01,0.00,22.5,20.9,00.0,31.3,24.0,09.3,0000.0,0004.12,0000.90,0000.50
2023-02-24 19:26:00,,0824.6,5.00,0.00,22.4,20.7,00.0,31.3,23.9,10.0,0000.0,0004.76,0000.92,0000.51
2023-02-24 19:27:00,,0824.4,5.00,0.00,22.4,20.7,00.0,31.3,23.9,09.7,0000.0,0004.98,0000.91,0000.51
2023-02-24 19:28:00,,0824.4,5.00,0.00,22.4,20.6,00.0,31.2,23.9,09.5,0000.0,0004.90,0000.91,0000.51
2023-02-24 19:29:00,,0824.4,4.99,0.00,22.4,21.3,00.0,31.2,24.1,09.6,0000.0,0004.73,0000.93,0000.51
2023-02-24 19:30:00,,0824.5,5.00,0.00,22.5,22.7,00.0,31.2,24.5,09.7,0000.0,0004.69,0000.93,0000.51
2023-02-24 19:31:00,,0824.6,4.97,0.00,22.7,23.1,00.0,31.3,24.7,09.5,0000.0,0004.74,0000.93,0000.51
2023-02-24 19:32:00,,0824.5,4.99,0.00,22.7,22.5,00.0,31.3,24.5,09.2,0000.0,0004.78,0000.92,0000.51
2023-02-24 19:33:00,,0824.7,4.98,0.00,22.7,22.0,00.0,31.3,24.4,09.3,0000.0,0004.64,0000.90,0000.52
2023-02-24 19:34:00,,0824.9,5.03,0.00,22.6,21.6,00.0,31.3,24.3,09.9,0000.0,0004.74,0000.86,0000.52
2023-02-24 19:35:00,,0824.8,5.01,0.00,22.6,21.3,00.0,31.3,24.2,09.4,0000.0,0005.57,0001.35,0001.00
2023-02-24 19:36:00,,0824.8,5.00,0.00,22.6,21.0,00.0,31.3,24.2,08.9,0000.0,0006.47,0002.33,0001.97
2023-02-24 19:37:00,,0824.8,5.01,0.00,22.5,20.9,00.0,31.3,24.1,09.4,0000.0,0006.52,0002.77,0002.43
2023-02-24 19:38:00,,0824.8,5.01,0.00,22.5,20.8,00.0,31.3,24.1,09.6,0000.0,0006.76,0003.16,0002.83
2023-02-24 19:39:00,,0824.7,5.01,0.00,22.5,20.8,00.0,31.3,24.1,09.5,0000.0,0007.58,0003.52,0003.28
2023-02-24 19:40:00,,0824.7,5.00,0.00,22.5,20.8,00.0,31.3,24.1,09.5,0000.0,0007.95,0003.62,0003.40
2023-02-24 19:41:00,,0824.8,4.99,0.00,22.4,20.7,00.0,31.3,24.1,09.9,0000.0,0008.20,0003.66,0003.44
2023-02-24 19:42:00,,0824.9,5.00,0.00,22.4,20.5,00.0,31.2,24.0,09.6,0000.0,0008.47,0003.88,0003.65
2023-02-24 19:43:00,,0824.9,5.00,0.00,22.3,20.4,00.0,31.2,23.9,08.5,0000.0,0009.07,0004.52,0004.28
2023-02-24 19:44:00,,0824.8,5.02,0.00,22.3,21.3,00.0,31.2,24.0,08.5,0000.0,0009.90,0005.20,0004.88
2023-02-24 19:45:00,,0824.8,4.99,0.00,22.5,22.6,00.0,31.2,24.4,08.8,0000.0,0010.65,0005.73,0005.38
2023-02-24 19:46:00,,0824.6,4.94,0.00,22.6,22.8,00.0,31.2,24.5,09.2,0000.0,0010.03,0005.88,0005.54
2023-02-24 19:47:00,,0824.4,4.99,0.00,22.6,22.3,00.0,31.3,24.4,09.6,0000.0,0009.60,0005.48,0005.15
2023-02-24 19:48:00,,0824.4,5.00,0.00,22.6,21.9,00.0,31.3,24.3,09.5,0000.0,0009.51,0005.21,0004.89
2023-02-24 19:49:00,,0824.4,4.98,0.00,22.6,21.6,00.0,31.3,24.3,10.1,0000.0,0009.21,0004.98,0004.68
2023-02-24 19:50:00,,0824.4,5.01,0.00,22.5,21.4,00.0,31.3,24.2,10.0,0000.0,0008.66,0004.64,0004.36
2023-02-24 19:51:00,,0824.4,4.99,0.00,22.5,21.2,00.0,31.3,24.1,10.0,0000.0,0008.34,0004.50,0004.22
2023-02-24 19:52:00,,0824.4,5.02,0.00,22.5,21.1,00.0,31.3,24.1,09.9,0000.0,0008.08,0004.46,0004.18
2023-02-24 19:53:00,,0824.4,5.00,0.00,22.5,21.0,00.0,31.3,24.0,09.8,0000.0,0007.87,0004.33,0004.03
2023-02-24 19:54:00,,0824.4,4.99,0.00,22.4,20.8,00.0,31.2,24.0,10.0,0000.0,0006.96,0003.78,0003.54
2023-02-24 19:55:00,,0824.5,5.00,0.00,22.4,20.7,00.0,31.2,24.0,09.9,0000.0,0005.14,0002.92,0002.58
2023-02-24 19:56:00,,0824.3,5.01,0.00,22.4,20.6,00.0,31.2,23.9,10.5,0000.0,0003.80,0001.98,0001.64
2023-02-24 19:57:00,,0824.4,5.00,0.00,22.3,20.6,00.0,31.2,23.9,10.6,0000.0,0002.98,0001.34,0000.98
2023-02-24 19:58:00,,0824.5,4.98,0.00,22.4,21.5,00.0,31.2,24.1,10.0,0000.0,0002.44,0001.01,0000.64
2023-02-24 19:59:00,,0824.5,5.00,0.00,22.5,22.7,00.0,31.2,24.5,09.9,0000.0,0001.91,0001.02,0000.63
